Home   Weather   Atlantic City   Past weeks

Flag for USA Past Weather in Atlantic City, New Jersey, USA — Yesterday and Last 2 Weeks

Now
69 °F

Passing clouds.


Feels Like: 69 °F
Forecast: 55 / 64 °F
Wind: No wind

Location: Atlantic City International Airport

Current Time: Apr 30, 2017 at 1:42:34 am

Latest Report: Apr 30, 2017 at 12:54 am


Visibility: 10 mi

Pressure: 30.09 "Hg

Humidity: 76%

Dew Point: 61 °F

Location of Atlantic CityLocation

Past Weather in Atlantic City — Graph

°F

Atlantic City Temperature Yesterday

Maximum temperature yesterday: 91 °F (at 2:54 pm)
Minimum temperature yesterday: 64 °F (at 2:54 am)
Average temperature yesterday: 75 °F

High & Low Weather Summary for the Past Weeks

 TemperatureHumidityPressure
High91 °F (Apr 29, 2:54 pm)97% (Apr 25, 4:28 am)30.50 "Hg (Apr 25, 4:28 am)
Low45 °F (Apr 15, 12:54 am)27% (Apr 16, 2:54 pm)29.66 "Hg (Apr 26, 3:54 am)
Average59 °F77%30.03 "Hg
* Reported Apr 14 11:54 pm — Apr 29 11:54 pm, Atlantic City, Weather by CustomWeather, © 2017

Note: Actual official high and low records may vary slightly from our data, if they occured in-between our weather recording intervals... More about our weather records

Advertising

Atlantic City Weather History for the Previous 24 Hours

Scroll right to see more
 ConditionsComfort  
Time TempWeatherWind HumidityBarometerVisibility
11:54 pm
Sat, Apr 29
70 °FPassing clouds.No wind73%30.09 "Hg10 mi
10:54 pm69 °FClear.No wind70%30.07 "Hg10 mi
9:54 pm68 °FClear.No wind70%30.07 "Hg10 mi
8:54 pm75 °FClear.No wind58%30.06 "Hg10 mi
7:54 pm79 °FClear.6 mph50%30.03 "Hg10 mi
6:54 pm83 °FSunny.9 mph46%30.02 "Hg10 mi
5:54 pm88 °FSunny.13 mph42%30.01 "Hg10 mi
4:54 pm89 °FSunny.16 mph36%30.01 "Hg10 mi
3:54 pm90 °FSunny.20 mph35%30.00 "Hg10 mi
2:54 pm91 °FSunny.16 mph33%29.99 "Hg10 mi
1:54 pm88 °FSunny.14 mph40%29.99 "Hg10 mi
11:54 am85 °FSunny.15 mph45%30.03 "Hg10 mi
10:54 am81 °FSunny.16 mph56%30.04 "Hg10 mi
9:54 am78 °FSunny.13 mph69%30.07 "Hg9 mi
9:05 am77 °FScattered clouds.9 mph74%30.07 "Hg8 mi
7:54 am74 °FOvercast.6 mph82%30.02 "Hg7 mi
7:34 am74 °FPartly sunny.8 mph85%30.01 "Hg6 mi
6:54 am73 °FFog.6 mph88%29.96 "Hg5 mi
5:54 am70 °FFog.13 mph90%29.97 "Hg6 mi
4:54 am67 °FFog.8 mph93%30.01 "Hg6 mi
4:16 am66 °FPassing clouds.7 mph90%29.99 "Hg7 mi
3:06 am64 °FPassing clouds.7 mph94%30.03 "Hg7 mi
2:54 am64 °FFog.5 mph94%30.03 "Hg5 mi
2:15 am66 °FFog.6 mph90%30.03 "Hg2 mi
1:54 am67 °FFog.3 mph93%30.03 "Hg6 mi
Weather by CustomWeather, © 2017

See weather overviewHow to use our weather pages